Regional Weather Roundup
Issued by NWS Boston, MA

Current Version | Previous Version | Text Only | Print | Product List | Glossary Off
Versions: 1 2 3 4 5 6 7 8 9 10 11 12 13 14 15 16 17 18 19 20 21 22 23 24 25 26 27 28 29 30 31 32 33 34 35 36 37 38 39 40 41 42 43 44 45 46 47 48 49 50
000 ASUS41 KBOX 220810 RWRBOX REGIONAL WEATHER ROUNDUP NATIONAL WEATHER SERVICE BOSTON/NORTON MA 400 AM EDT MON OCT 22 2018 NOTE: "FAIR" INDICATES FEW OR NO CLOUDS BELOW 12,000 FEET WITH NO SIGNIFICANT WEATHER AND/OR OBSTRUCTIONS TO VISIBILITY. MAZALL-220900- EASTERN MASSACHUSETTS CITY SKY/WX TMP DP RH WIND PRES REMARKS BOSTON FAIR 37 20 50 W7 30.13R WCI 32 BEVERLY FAIR 31 21 66 CALM 30.11R LAWRENCE FAIR 33 21 61 SW5 30.13R WCI 29 BEDFORD FAIR 27 20 75 SW6 30.11S WCI 20 BLUE HILL N/A 29 21 72 W10 30.09S WCI 20 NORWOOD FAIR 26 22 84 SE3 30.13S MARSHFIELD FAIR 30 25 80 W5 30.13S WCI 25 PLYMOUTH FAIR 30 23 75 CALM 30.13R TAUNTON FAIR 25 21 85 CALM 30.14R NEW BEDFORD FAIR 28 26 92 CALM 30.14R $$ MAZALL-220900- CAPE COD AND THE ISLANDS CITY SKY/WX TMP DP RH WIND PRES REMARKS FALMOUTH FAIR 28 23 80 NW5 30.14S WCI 23 HYANNIS FAIR 33 22 63 W6 30.12R WCI 28 CHATHAM FAIR 39 23 52 NW10 30.12R PROVINCETOWN FAIR 39 20 46 NW21G31 30.12R WCI 29 NANTUCKET FAIR 37 21 52 NW12 30.14R WCI 29 MARTHAS VNYRD FAIR 36 21 54 NW6 30.15R WCI 31 $$ MAZALL-220900- CENTRAL AND WESTERN MASSACHUSETTS CITY SKY/WX TMP DP RH WIND PRES REMARKS WORCESTER FAIR 26 21 81 W6 30.08F WCI 19 FITCHBURG FAIR 24 21 88 CALM 30.12S ORANGE FAIR 25 20 81 CALM 30.12S SPRINGFIELD FAIR 24 22 90 SW3 30.12S WESTFIELD FAIR 26 24 92 CALM 30.13F NORTH ADAMS CLOUDY 36 26 67 W8 30.11S WCI 30 PITTSFIELD CLOUDY 35 26 69 W6 30.09S WCI 30 $$ RIZALL-220900- RHODE ISLAND CITY SKY/WX TMP DP RH WIND PRES REMARKS PROVIDENCE FAIR 29 24 82 SW5 30.15S WCI 24 NEWPORT FAIR 36 27 69 W6 30.14R WCI 31 BLOCK ISLAND FAIR 39 26 59 NW8 30.17R SMITHFIELD FAIR 26 23 88 W3 30.12S WESTERLY FAIR 31 28 89 W3 30.17R $$ CTZALL-220900- CONNECTICUT CITY SKY/WX TMP DP RH WIND PRES REMARKS BRADLEY INTL FAIR 29 26 89 CALM 30.14S HARTFORD FAIR 29 26 89 S3 30.16R BRIDGEPORT FAIR 36 28 73 W5 30.19R DANBURY FAIR 29 26 89 CALM 30.18R GROTON FAIR 35 27 72 W7 30.17R WCI 29 NEW HAVEN FAIR 40 30 67 VRB5 30.18R CHESTER FAIR 32 25 74 W6 30.15R WCI 26 MERIDEN FAIR 26 24 92 CALM 30.17R WILLIMANTIC FAIR 28 27 96 CALM 30.15S OXFORD FAIR 26 24 92 CALM 30.15R $$ MEZ002-015-021-024-NHZ003-005-008-011-012-014-VTZ005-008-220900- NORTHERN NEW ENGLAND CITY SKY/WX TMP DP RH WIND PRES REMARKS PORTLAND ME FAIR 31 22 69 SW5 30.06R WCI 26 BANGOR ME FAIR 28 21 75 S5 29.99R WCI 23 CONCORD NH FAIR 30 18 60 W3 30.09S MANCHESTER NH FAIR 30 21 69 S3 30.09R NASHUA NH NOT AVBL PORTSMOUTH NH MOCLDY 35 18 50 W8 30.07S WCI 28 JAFFREY NH FAIR 31 19 61 W7 30.07S WCI 24 KEENE NH FAIR 24 22 91 CALM 30.11S BURLINGTON VT CLOUDY 37 18 46 NW10 30.10S WCI 30 MT. WASHINGTON SNOW 7 7 100 W59G67 N/A VSB 1/16WCI -23 $$ NYZ052-076-220900- EASTERN NEW YORK CITY SKY/WX TMP DP RH WIND PRES REMARKS ALBANY CLOUDY 37 31 78 SW3 30.15R NEW YORK CITY FAIR 43 26 51 W9 30.20S $$ ANZALL-220900- MARINE OBSERVATIONS STATION/POSITION TIME TEMP WIND PRES VSBY WAVE AIR SEA DIR/SP/G HT/PER (UTC) (F) (DEG/KT/KT) (MB) (MI) (FT/S) BOSTON BUOY 0750 40 56 300/ 17/ 21 1019.3R 3/ 4 BUZZARDS BAY 0700 39 310/ 9/ 11 1021.2R NANTUCKET SOUND 0750 40 58 310/ 14/ 19 1020.4R 2/ 3 MASS BAY-STELLWA 0704 40 55 300/ 19/ 23 1018.4R 1 7/8 3/ 3 ISLE OF SHOALS 0700 37 280/ 20/ 23 1017.8R S OF BLOCK IS 0743 62 N/A 4/ 5 $$ ......................KEY......................... SKY/WX - SKY CONDITION/PRESENT WEATHER TMP - TEMPERATURE IN FAHRENHEIT DWPT - DEWPOINT IN FAHRENHEIT RH - RELATIVE HUMIDITY IN PERCENT WIND - DIRECTION AND SPEED IN MPH PRES - MEAN SEA LEVEL PRESSURE IN INCHES OF HG WCI - WIND CHILL INDEX VSB - VISIBILITY IN MILES HX - HEAT INDEX TC - TEMPERATURE IN CELSIUS VRB - VARIABLE WIND DIRECTION N/A - NOT AVAILABLE

USA.gov is the U.S. government's official web portal to all federal, state and local government web resources and services.